When you browse on this site, cookies collect data to enhance your experience and personalize the content and advertising you see.
Visit our Privacy Policy to learn more. By continuing to use the site, you agree to this use of cookies and data.
  • In Hungary
  • List of Countries
  • For 7 days
  • Water Temperature
  • Satellite Maps
  • Weather Map
  • News
  • Weather Widgets
  • user-avatar
    Login

    Hourly Weather Akalajon

    Today, 17 December, Monday

    Time Temperature Precipitation Wind Pressure Humidity
    00:00 +27°C° 0 mm 1 mps 756 mmHg 95%
    01:00 +27°C° 0 mm 1 mps 755 mmHg 95%
    02:00 +27°C° 0 mm 1 mps 755 mmHg 95%
    03:00 +27°C° 0 mm 1 mps 755 mmHg 96%
    04:00 +26°C° 0 mm 1 mps 755 mmHg 96%
    05:00 +27°C° 0.1 mm 1 mps 755 mmHg 95%
    06:00 +27°C° 0.1 mm 1 mps 755 mmHg 95%
    07:00 +27°C° 0.1 mm 1 mps 756 mmHg 94%
    08:00 +28°C° 0.3 mm 1 mps 756 mmHg 86%
    09:00 +30°C° 0.3 mm 1 mps 756 mmHg 78%
    10:00 +32°C° 0.3 mm 1 mps 756 mmHg 70%
    11:00 +33°C° 0.3 mm 1 mps 755 mmHg 67%
    12:00 +34°C° 0.3 mm 2 mps 755 mmHg 64%
    13:00 +35°C° 0.3 mm 2 mps 754 mmHg 61%
    14:00 +34°C° 0.7 mm 2 mps 754 mmHg 65%
    15:00 +32°C° 0.7 mm 2 mps 754 mmHg 69%
    16:00 +32°C° 0.7 mm 2 mps 753 mmHg 73%
    17:00 +30°C° 0.2 mm 2 mps 753 mmHg 78%
    18:00 +29°C° 0.2 mm 2 mps 754 mmHg 83%
    19:00 +28°C° 0.2 mm 1 mps 754 mmHg 88%
    20:00 +28°C° 0 mm 1 mps 755 mmHg 90%
    21:00 +27°C° 0 mm 1 mps 755 mmHg 91%
    22:00 +27°C° 0 mm 1 mps 756 mmHg 93%
    23:00 +27°C° 0 mm 1 mps 756 mmHg 94%

    Tomorrow, 18 December, Tuesday

    Time Temperature Precipitation Wind Pressure Humidity
    00:00 +27°C° 0 mm 1 mps 755 mmHg 95%
    01:00 +26°C° 0 mm 1 mps 755 mmHg 95%
    02:00 +26°C° 0 mm 1 mps 755 mmHg 96%
    03:00 +26°C° 0 mm 1 mps 755 mmHg 97%
    04:00 +26°C° 0 mm 2 mps 754 mmHg 97%
    05:00 +26°C° 0 mm 1 mps 755 mmHg 96%
    06:00 +27°C° 0 mm 1 mps 755 mmHg 95%
    07:00 +27°C° 0 mm 1 mps 755 mmHg 94%
    08:00 +28°C° 0 mm 1 mps 756 mmHg 86%
    09:00 +30°C° 0 mm 1 mps 756 mmHg 79%
    10:00 +31°C° 0 mm 1 mps 756 mmHg 71%
    11:00 +33°C° 0 mm 1 mps 756 mmHg 65%
    12:00 +35°C° 0 mm 2 mps 755 mmHg 58%
    13:00 +37°C° 0 mm 2 mps 755 mmHg 51%
    14:00 +36°C° 0.2 mm 2 mps 754 mmHg 55%
    15:00 +35°C° 0.2 mm 3 mps 753 mmHg 59%
    16:00 +34°C° 0.2 mm 3 mps 753 mmHg 63%
    17:00 +31°C° 0.2 mm 3 mps 753 mmHg 71%
    18:00 +30°C° 0.2 mm 3 mps 754 mmHg 79%
    19:00 +28°C° 0.2 mm 2 mps 754 mmHg 87%
    20:00 +28°C° 0 mm 2 mps 755 mmHg 89%
    21:00 +27°C° 0 mm 2 mps 755 mmHg 91%
    22:00 +27°C° 0 mm 1 mps 756 mmHg 93%
    23:00 +27°C° 0 mm 2 mps 756 mmHg 93%

    Day after tomorrow, 19 December, Wednesday

    Time Temperature Precipitation Wind Pressure Humidity
    00:00 +27°C° 0 mm 2 mps 756 mmHg 94%
    01:00 +27°C° 0 mm 2 mps 755 mmHg 94%
    02:00 +27°C° 0 mm 2 mps 755 mmHg 94%
    03:00 +26°C° 0 mm 2 mps 755 mmHg 94%
    04:00 +26°C° 0 mm 2 mps 754 mmHg 94%
    05:00 +26°C° 0 mm 2 mps 755 mmHg 94%
    06:00 +26°C° 0 mm 2 mps 755 mmHg 93%
    07:00 +27°C° 0 mm 1 mps 756 mmHg 93%
    08:00 +28°C° 0 mm 1 mps 756 mmHg 84%
    09:00 +30°C° 0 mm 1 mps 756 mmHg 75%
    10:00 +32°C° 0 mm 1 mps 757 mmHg 67%
    11:00 +32°C° 0.1 mm 2 mps 756 mmHg 63%
    12:00 +34°C° 0.1 mm 2 mps 755 mmHg 60%
    13:00 +35°C° 0.1 mm 2 mps 755 mmHg 56%
    14:00 +35°C° 0.1 mm 3 mps 754 mmHg 58%
    15:00 +34°C° 0.1 mm 3 mps 753 mmHg 60%
    16:00 +34°C° 0.1 mm 3 mps 753 mmHg 61%
    17:00 +31°C° 0.1 mm 3 mps 753 mmHg 70%
    18:00 +30°C° 0.1 mm 3 mps 754 mmHg 78%
    19:00 +28°C° 0.1 mm 2 mps 754 mmHg 86%
    20:00 +28°C° 0.2 mm 2 mps 755 mmHg 88%
    21:00 +27°C° 0.2 mm 2 mps 755 mmHg 90%
    22:00 +27°C° 0.2 mm 1 mps 756 mmHg 92%
    23:00 +27°C° 0 mm 2 mps 756 mmHg 93%

    20 December, Thursday

    Time Temperature Precipitation Wind Pressure Humidity
    00:00 +27°C° 0 mm 2 mps 755 mmHg 94%
    01:00 +26°C° 0 mm 2 mps 755 mmHg 94%
    02:00 +26°C° 0 mm 2 mps 755 mmHg 95%
    03:00 +26°C° 0 mm 2 mps 754 mmHg 95%
    04:00 +26°C° 0 mm 2 mps 754 mmHg 95%
    05:00 +26°C° 0 mm 2 mps 755 mmHg 94%
    06:00 +26°C° 0 mm 2 mps 755 mmHg 94%
    07:00 +26°C° 0 mm 1 mps 755 mmHg 93%
    08:00 +28°C° 0 mm 1 mps 756 mmHg 85%
    09:00 +30°C° 0 mm 1 mps 756 mmHg 76%
    10:00 +32°C° 0 mm 1 mps 756 mmHg 67%
    11:00 +33°C° 0.1 mm 1 mps 756 mmHg 62%
    12:00 +35°C° 0.1 mm 2 mps 755 mmHg 57%
    13:00 +36°C° 0.1 mm 2 mps 754 mmHg 51%
    14:00 +36°C° 0.2 mm 2 mps 754 mmHg 53%
    15:00 +35°C° 0.2 mm 2 mps 753 mmHg 55%
    16:00 +34°C° 0.2 mm 3 mps 752 mmHg 58%
    17:00 +32°C° 0.4 mm 2 mps 753 mmHg 67%
    18:00 +30°C° 0.4 mm 2 mps 754 mmHg 76%
    19:00 +28°C° 0.4 mm 2 mps 754 mmHg 85%
    20:00 +28°C° 0.4 mm 2 mps 755 mmHg 87%
    21:00 +27°C° 0.4 mm 2 mps 755 mmHg 90%
    22:00 +27°C° 0.4 mm 1 mps 756 mmHg 92%
    23:00 +27°C° 0.1 mm 1 mps 756 mmHg 93%

    21 December, Friday

    Time Temperature Precipitation Wind Pressure Humidity
    00:00 +26°C° 0.1 mm 1 mps 755 mmHg 94%
    01:00 +26°C° 0.1 mm 2 mps 755 mmHg 95%
    02:00 +26°C° 0 mm 2 mps 754 mmHg 95%
    03:00 +26°C° 0 mm 2 mps 754 mmHg 95%
    04:00 +26°C° 0 mm 2 mps 754 mmHg 96%
    05:00 +26°C° 0 mm 2 mps 754 mmHg 95%
    06:00 +26°C° 0 mm 2 mps 755 mmHg 94%
    07:00 +26°C° 0 mm 2 mps 755 mmHg 93%
    08:00 +28°C° 0.1 mm 1 mps 755 mmHg 87%
    09:00 +29°C° 0.1 mm 1 mps 756 mmHg 80%
    10:00 +31°C° 0.1 mm 1 mps 756 mmHg 73%
    11:00 +32°C° 0.2 mm 1 mps 755 mmHg 67%
    12:00 +35°C° 0.2 mm 2 mps 754 mmHg 60%
    13:00 +36°C° 0.2 mm 2 mps 754 mmHg 54%
    14:00 +35°C° 0.2 mm 2 mps 753 mmHg 56%
    15:00 +35°C° 0.2 mm 2 mps 752 mmHg 58%
    16:00 +34°C° 0.2 mm 3 mps 752 mmHg 60%
    17:00 +31°C° 0.1 mm 2 mps 752 mmHg 68%
    18:00 +30°C° 0.1 mm 2 mps 753 mmHg 76%
    19:00 +28°C° 0.1 mm 2 mps 753 mmHg 84%
    20:00 +28°C° 0 mm 2 mps 754 mmHg 86%
    21:00 +28°C° 0 mm 2 mps 754 mmHg 89%
    22:00 +27°C° 0 mm 2 mps 755 mmHg 92%
    23:00 +27°C° 0.1 mm 2 mps 754 mmHg 93%

    22 December, Saturday

    Time Temperature Precipitation Wind Pressure Humidity
    00:00 +27°C° 0.1 mm 2 mps 754 mmHg 93%
    01:00 +26°C° 0.1 mm 2 mps 754 mmHg 94%
    02:00 +26°C° 0 mm 2 mps 754 mmHg 94%
    03:00 +26°C° 0 mm 3 mps 753 mmHg 94%
    04:00 +26°C° 0 mm 3 mps 753 mmHg 94%
    05:00 +26°C° 0 mm 2 mps 754 mmHg 93%
    06:00 +26°C° 0 mm 2 mps 754 mmHg 92%
    07:00 +26°C° 0 mm 2 mps 755 mmHg 92%
    08:00 +28°C° 0.1 mm 2 mps 755 mmHg 85%
    09:00 +29°C° 0.1 mm 2 mps 755 mmHg 79%
    10:00 +30°C° 0.1 mm 1 mps 755 mmHg 73%
    11:00 +32°C° 0.1 mm 2 mps 755 mmHg 67%
    12:00 +34°C° 0.1 mm 2 mps 754 mmHg 61%
    13:00 +36°C° 0.1 mm 2 mps 753 mmHg 55%
    14:00 +35°C° 0.5 mm 2 mps 753 mmHg 58%
    15:00 +34°C° 0.5 mm 2 mps 752 mmHg 61%
    16:00 +33°C° 0.5 mm 3 mps 752 mmHg 64%
    17:00 +31°C° 0.4 mm 2 mps 752 mmHg 71%
    18:00 +29°C° 0.4 mm 2 mps 753 mmHg 78%
    19:00 +28°C° 0.4 mm 2 mps 753 mmHg 85%
    20:00 +28°C° 0.3 mm 2 mps 753 mmHg 88%
    21:00 +27°C° 0.3 mm 2 mps 754 mmHg 90%
    22:00 +27°C° 0.3 mm 2 mps 754 mmHg 92%
    23:00 +27°C° 0.6 mm 2 mps 754 mmHg 93%
    Show more